Simultaneous Nadir Overpasses (SNOs) Predictions

Prediction of SNOs between METOP-C and LANDSAT-8 Satellite Orbit:

Table of predicted SNOs for the next 14.0 days since TLE Epoch: 1/17/2020
Index Date (METOP-C) Time (METOP-C) Lat,Lon (METOP-C) SZA (METOP-C ) Date (LANDSAT-8) Time (LANDSAT-8) Lat,Lon (LANDSAT-8) SZA (LANDSAT-8 ) Distance(km) Time Diff (sec)
1 01/18/2020 10:42:02 -81.04,-122.42 76.82 01/18/2020 10:43:14 -81.04,-122.29 76.78 2.27 72
2 01/18/2020 11:32:39 81.08, 45.88 103.30 01/18/2020 11:32:39 81.07, 45.76 103.28 2.33 0
3 01/18/2020 12:23:19 -81.09,-146.37 76.67 01/18/2020 12:22:05 -81.09,-146.28 76.69 1.67 74
4 01/21/2020 07:06:29 81.05, 111.86 102.62 01/21/2020 07:06:54 81.05, 112.00 102.64 2.42 25
5 01/21/2020 07:57:07 -81.10, -79.57 77.25 01/21/2020 07:56:19 -81.10, -79.65 77.27 1.37 48
6 01/24/2020 02:40:16 81.06, 178.59 101.98 01/24/2020 02:41:07 81.06, 178.57 102.00 0.38 51
7 01/24/2020 03:30:56 -81.08, -13.52 77.96 01/24/2020 03:30:33 -81.09, -13.42 77.96 1.87 23
8 01/26/2020 23:04:45 -81.08, 52.90 78.68 01/26/2020 23:04:48 -81.07, 52.78 78.70 2.17 3
9 01/26/2020 23:55:23 81.09,-139.37 101.36 01/26/2020 23:54:13 81.09,-139.24 101.35 2.31 70
10 01/29/2020 18:38:35 -81.06, 118.94 79.49 01/29/2020 18:39:03 -81.05, 118.94 79.48 0.54 28




NCC Satellite Simultaneous Nadir Overpasses (SNOs) Prediction Service
